Location: Vancouver
(49.2500°N, 123.1330°W)
Time: 19:13:48
(UTC-07:00)

Vanguard 2 Rocket - Visible Passes

Search period start: 07 July 2015 00:00
Search period end: 17 July 2015 00:00
Orbit: 555 x 3331 km, 32.9° (Epoch: 07 July)

Date Brightness Start Highest point End Pass type
(mag) Time Alt. Az. Time Alt. Az. Time Alt. Az.
07 Jul 9.5 00:43:59 10° WSW 00:58:42 46° S 01:17:14 10° ESE visible
07 Jul 9.8 02:58:30 10° W 03:14:58 40° SSW 03:31:57 10° SE visible
07 Jul 9.5 23:45:08 10° SW 23:58:14 43° S 00:16:14 10° ESE visible
08 Jul 9.7 01:58:35 10° WSW 02:14:15 43° SSW 02:32:14 10° SE visible
08 Jul 10.1 04:14:55 10° W 04:30:05 28° SSW 04:44:18 10° SSE visible
08 Jul 9.4 22:46:46 10° SW 22:58:10 39° SSE 23:14:50 10° ESE visible
09 Jul 9.5 00:59:10 10° WSW 01:13:36 45° S 01:31:55 10° ESE visible
09 Jul 9.9 03:14:08 10° W 03:29:39 34° SSW 03:45:43 10° SSE visible
09 Jul 9.4 21:48:52 10° SSW 21:58:31 32° SSE 22:13:04 10° E visible
10 Jul 9.4 00:00:13 10° WSW 00:13:08 44° S 00:31:05 10° ESE visible
10 Jul 9.7 02:14:03 10° WSW 02:29:05 38° SSW 02:46:21 10° SE visible
10 Jul 10.2 04:31:32 10° W 04:44:35 21° SW 04:56:34 10° S visible
10 Jul 9.3 23:01:41 10° SW 23:13:00 41° S 23:29:49 10° ESE visible
11 Jul 9.6 01:14:33 10° WSW 01:28:31 41° S 01:46:18 10° SE visible
11 Jul 10.0 03:30:11 10° W 03:44:18 27° SSW 03:58:45 10° SSE visible
11 Jul 9.3 22:03:34 10° SW 22:13:16 36° SSE 22:28:15 10° ESE visible
12 Jul 9.4 00:15:29 10° WSW 00:28:05 42° S 00:45:40 10° ESE visible
12 Jul 9.8 02:29:49 10° W 02:43:52 32° SSW 02:59:53 10° SSE visible
12 Jul 9.3 23:16:50 10° WSW 23:27:57 41° S 23:44:35 10° ESE visible
13 Jul 9.6 01:30:06 10° WSW 01:43:25 36° SSW 02:00:13 10° SE visible
13 Jul 10.2 03:47:03 10° WSW 03:58:56 20° SW 04:10:36 10° S visible
13 Jul 9.2 22:18:34 10° SW 22:28:10 38° SSE 22:43:12 10° ESE visible
14 Jul 9.5 00:30:55 10° WSW 00:43:05 38° S 00:59:54 10° SE visible
14 Jul 10.0 02:46:01 10° WSW 02:58:39 25° SSW 03:12:36 10° SSE visible
14 Jul 9.3 23:32:10 10° WSW 23:42:59 39° S 23:59:04 10° SE visible
15 Jul 9.8 01:45:59 10° WSW 01:58:20 30° SSW 02:13:31 10° SSE visible
15 Jul 10.3 04:06:08 10° WSW 04:13:37 13° SW 04:19:47 10° SSW visible
15 Jul 9.2 22:33:47 10° WSW 22:43:11 38° S 22:57:55 10° ESE visible
16 Jul 9.6 00:46:36 10° WSW 00:58:06 33° SSW 01:13:38 10° SE visible
16 Jul 10.1 03:03:14 10° WSW 03:13:27 18° SW 03:23:55 10° S visible
16 Jul 9.0 21:35:44 10° SW 21:43:46 34° SSE 21:56:34 10° ESE visible
